Theta_e
290 290 289 289 288 287 287 287 286 286 285 285 284 283 283 283 282 282 282 281 281 281 281 280 280 280 280 280 279 279 279 279 279 279 279 279 279 279 279 279 278 278 279 279 280 280 279 279 279 279 280 279 279 280 279 280 280 280 280 280 280 280 280 279 277 277 279 282 282 282 283 284 282 284 283 284 284 285 286 286 286 286 286 286 287
289 289 288 288 287 286 286 285 285 284 283 283 283 282 282 281 281 281 280 280 280 280 280 280 279 279 279 279 279 278 278 278 278 278 277 277 277 279 278 277 277 277 278 277 278 279 278 278 278 278 279 278 278 278 278 278 278 278 278 279 278 278 279 278 276 276 275 278 279 281 281 283 281 283 282 282 282 283 283 284 285 285 285 286 286
289 288 287 286 286 285 285 284 284 283 282 282 281 281 280 280 281 280 280 279 279 279 278 279 278 278 278 278 278 277 277 277 277 277 276 276 276 276 277 276 276 276 276 277 277 277 277 277 277 277 278 277 277 277 278 278 278 277 277 277 277 277 278 278 276 275 275 276 278 278 279 280 280 280 281 282 282 282 282 282 283 284 285 285 285
288 287 287 286 285 284 284 283 283 282 281 280 280 280 280 279 280 279 279 279 278 278 278 277 277 277 277 277 277 276 276 276 276 276 276 275 275 275 276 276 276 276 276 276 276 276 276 276 276 276 276 276 276 276 277 277 276 276 276 276 276 276 277 277 277 276 275 274 276 276 278 277 278 279 280 281 280 280 281 281 282 282 283 284 285
287 287 286 285 284 284 283 282 281 280 280 279 278 278 278 278 278 278 278 278 278 277 277 277 276 276 276 275 275 275 275 275 275 275 275 275 275 275 275 276 276 276 276 276 276 276 276 275 276 276 276 275 275 275 276 275 275 275 275 275 275 276 276 276 276 276 275 273 274 276 276 276 277 278 279 278 278 279 280 280 280 281 282 283 284
286 286 285 284 283 283 282 281 280 279 279 278 278 278 278 277 277 277 277 277 276 276 275 275 275 275 275 275 274 274 274 274 274 274 274 274 274 275 276 276 276 276 276 276 276 276 275 275 275 275 275 274 274 274 274 274 274 274 274 274 274 275 274 274 275 274 274 273 273 272 274 274 274 275 277 277 276 276 277 278 280 281 281 280 281
286 285 284 283 283 282 281 281 280 279 278 278 278 277 277 276 276 275 275 275 275 275 275 274 275 274 274 274 273 274 273 273 273 273 273 274 275 275 275 275 275 275 275 275 275 276 275 275 275 275 274 274 274 274 274 273 273 273 273 273 273 273 273 273 273 273 272 272 272 273 272 274 274 273 276 277 276 276 274 275 275 277 277 277 277
285 284 284 283 282 281 281 280 279 278 278 277 277 276 275 275 275 274 274 274 274 274 273 273 274 274 273 273 273 273 273 273 273 273 273 274 274 275 275 274 274 275 275 275 275 275 275 275 275 275 274 274 274 274 273 273 273 272 273 273 273 272 272 272 272 271 271 271 271 271 272 272 273 274 275 274 273 274 275 275 273 273 275 276 277
284 283 283 282 282 281 280 279 278 277 276 276 275 275 274 274 274 274 273 273 273 273 273 273 272 272 273 272 272 272 272 272 272 272 272 273 274 274 274 274 274 274 274 274 275 275 275 275 275 275 275 275 276 275 275 275 273 272 272 273 272 272 271 271 270 270 270 270 270 271 271 270 271 271 271 271 271 271 274 274 273 274 275 275 276
282 282 282 282 281 280 278 277 277 276 276 275 275 274 274 273 273 272 272 272 272 272 272 272 272 272 272 272 272 272 272 272 272 272 274 274 274 274 274 274 274 274 273 273 273 274 274 274 275 275 275 275 275 275 275 275 275 274 273 273 272 271 271 270 269 269 269 269 269 269 269 269 270 271 271 272 273 274 273 273 272 273 274 273 274
283 282 282 281 280 278 277 277 276 275 275 274 274 273 273 272 272 272 271 271 271 270 271 271 271 271 271 271 271 271 272 272 272 273 275 275 275 274 274 274 274 274 273 273 272 273 273 274 273 274 274 274 273 274 275 275 275 275 275 275 275 272 270 270 269 270 269 269 270 270 270 269 271 272 272 272 273 273 273 273 273 273 272 271 270
282 282 282 279 278 278 277 276 275 275 274 273 272 272 272 271 271 270 270 270 270 270 270 270 270 270 270 270 270 270 271 272 273 273 274 275 275 274 274 273 273 273 273 273 273 273 272 272 272 272 272 272 272 272 273 274 274 275 275 275 275 275 275 273 271 270 270 270 270 270 270 270 271 272 272 273 272 273 273 273 273 272 272 271 272
282 281 280 278 277 277 277 276 275 274 273 272 271 270 270 270 270 269 269 270 270 269 270 270 269 270 269 269 269 270 270 272 272 273 274 275 275 275 273 273 273 272 273 273 272 272 272 271 271 272 272 273 272 272 271 271 273 274 274 274 274 274 275 276 276 274 273 272 271 271 271 272 271 272 273 273 274 272 273 273 273 273 273 273 273
282 281 279 278 278 277 276 275 274 273 272 271 270 270 269 269 270 270 269 269 269 269 269 268 269 268 268 268 268 269 269 271 272 273 274 274 275 275 273 273 273 272 272 272 271 271 271 270 270 270 271 271 271 271 271 271 271 272 272 272 272 273 275 276 276 277 276 273 273 271 273 274 273 273 275 275 274 273 273 272 273 273 273 273 275
281 280 278 278 277 276 275 274 273 272 271 270 270 269 269 270 269 269 269 269 269 268 268 268 268 267 266 267 267 267 268 270 272 273 273 274 274 275 273 272 272 271 271 271 271 271 271 271 270 270 270 271 271 272 272 272 272 272 272 271 272 272 273 273 273 273 274 274 274 274 274 275 275 275 276 276 275 275 275 275 275 275 275 276 276
280 279 278 277 276 276 274 274 272 271 270 269 269 269 269 269 268 269 268 269 269 268 268 268 266 266 266 265 265 265 267 270 271 272 272 273 274 272 271 271 270 270 270 271 271 271 271 271 270 270 270 271 273 275 274 273 273 272 272 272 272 273 273 276 278 278 277 276 276 276 276 276 278 277 277 277 277 278 278 278 277 276 274 272 271
279 278 277 277 276 275 274 273 271 270 270 269 268 269 269 268 268 268 267 268 268 267 267 266 266 266 265 264 264 264 265 268 270 271 272 273 272 270 270 270 270 270 270 270 271 271 271 271 271 271 271 271 274 276 276 276 273 273 272 272 273 273 273 275 278 279 280 280 281 281 281 282 281 281 281 281 279 278 276 274 273 273 272 270 271
279 278 277 276 275 274 274 272 271 270 269 269 268 269 269 268 267 267 267 267 267 266 266 265 265 265 264 264 264 263 264 266 269 270 271 272 272 270 270 269 269 269 269 270 271 271 271 272 273 272 272 272 275 276 277 276 274 274 273 273 272 272 273 275 276 277 280 280 280 280 280 280 280 281 281 281 280 279 275 272 273 273 271 271 269
279 278 277 276 275 274 273 272 271 270 269 269 269 269 268 267 267 266 266 266 266 266 265 265 264 264 264 264 265 264 263 265 268 269 270 271 271 270 270 269 269 269 269 270 271 271 271 272 273 274 273 274 277 277 278 276 274 274 273 273 272 272 274 275 275 275 275 275 275 276 276 277 277 276 277 279 280 279 277 275 275 273 271 271 271
280 279 277 275 274 273 272 270 270 269 269 268 267 267 267 266 265 265 265 266 265 266 265 264 263 263 264 263 262 263 263 263 265 269 270 271 272 271 270 269 268 269 269 269 269 270 271 272 273 275 276 276 277 277 278 278 275 275 274 273 272 272 275 275 275 274 273 273 273 273 273 274 274 275 275 275 276 276 276 275 275 274 272 271 271
279 277 276 274 272 271 270 269 268 268 268 266 266 265 266 266 265 264 263 264 264 264 263 262 262 262 263 263 263 263 263 263 264 268 270 271 272 272 270 270 270 269 269 270 270 270 271 271 272 274 276 277 277 278 278 279 278 275 274 273 273 275 276 273 273 274 272 271 271 271 271 272 272 273 273 274 274 275 275 275 275 275 273 272 271
278 276 274 272 271 269 268 267 266 265 265 265 264 264 265 265 264 263 264 264 262 261 261 261 262 263 263 264 263 263 264 265 264 267 269 271 272 273 271 271 271 271 270 271 271 271 271 272 272 274 276 277 277 278 278 277 277 274 273 276 277 277 273 272 271 270 269 269 269 269 269 270 270 271 271 272 273 273 274 274 275 275 275 274 272
276 274 273 270 268 267 266 265 264 263 263 264 263 263 263 261 261 262 262 262 261 261 261 261 262 263 263 264 265 265 265 265 268 267 269 271 272 273 273 273 274 273 271 270 271 271 272 272 273 274 276 276 276 276 276 276 274 272 275 275 275 275 272 269 269 268 268 268 267 267 267 268 268 269 270 270 272 273 273 273 274 274 274 274 274
274 272 270 269 266 265 264 263 262 262 262 262 262 262 262 261 261 262 262 262 263 263 264 264 263 263 263 264 265 266 266 267 268 270 270 271 272 273 273 274 274 273 273 272 272 272 272 272 273 275 275 275 274 274 274 273 271 273 273 273 272 271 268 268 267 267 267 266 266 266 266 268 268 269 269 271 271 272 272 272 272 273 273 273 273
271 270 269 267 265 263 262 262 261 261 261 262 261 262 261 261 261 263 262 263 264 264 264 264 263 263 264 263 265 266 266 267 267 269 270 271 271 272 273 274 274 275 273 272 273 272 273 275 274 274 273 273 273 272 270 270 271 272 271 271 269 266 266 265 265 265 264 264 264 264 265 266 267 268 269 270 270 271 271 271 272 272 273 273 273
270 269 267 265 264 262 261 261 260 260 261 262 262 264 262 261 263 264 263 264 263 263 264 264 263 263 263 264 264 265 266 266 267 267 269 269 270 271 272 273 274 274 274 273 273 274 273 273 273 272 271 270 268 267 267 267 270 270 269 268 265 264 264 264 264 263 262 263 263 263 264 265 266 267 268 269 268 268 268 268 269 269 270 271 271
268 267 265 264 262 261 261 261 260 259 260 261 262 263 263 263 264 264 264 264 264 264 263 263 263 263 263 263 264 265 265 266 267 267 268 268 269 270 270 271 273 274 272 271 271 270 269 269 269 270 269 270 269 268 268 268 266 266 265 265 264 264 264 264 264 263 263 263 263 264 264 265 266 266 266 266 266 267 268 268 268 268 270 270 270
268 266 264 264 262 261 262 262 261 261 260 261 262 262 262 263 263 263 264 264 263 263 263 263 263 263 263 264 264 265 265 266 266 267 268 268 269 270 271 271 271 271 269 270 268 268 267 268 267 265 265 264 265 264 264 264 265 265 264 264 264 264 265 266 266 264 264 264 264 264 264 264 264 264 265 265 265 266 268 268 267 267 269 269 268
267 265 264 263 263 262 263 262 263 263 261 261 263 263 263 262 263 263 263 264 264 264 264 264 264 264 264 264 264 264 265 265 267 270 269 271 271 270 270 271 271 271 271 272 268 266 265 265 264 264 263 263 263 263 263 263 263 263 263 263 264 263 263 263 263 263 264 264 263 263 263 263 264 264 264 264 265 266 267 267 267 267 268 268 267
265 264 264 263 263 262 263 263 263 263 262 261 261 261 263 265 264 263 262 265 266 267 267 264 264 265 264 265 266 265 265 266 270 272 273 273 273 273 273 274 274 272 272 272 269 265 263 262 263 262 262 262 262 262 262 262 262 262 262 264 263 263 263 263 263 263 264 263 263 263 263 263 263 264 264 264 265 266 267 267 266 267 266 266 266
266 264 263 263 263 263 263 262 262 263 262 262 262 262 262 264 267 268 267 266 267 268 269 270 270 270 267 265 268 271 271 272 272 272 272 272 272 273 273 273 272 271 271 268 265 263 262 261 262 262 262 261 261 262 261 261 261 261 261 262 262 263 263 263 263 263 263 263 263 263 264 264 264 264 264 264 264 265 265 266 266 266 265 266 265
266 265 264 264 263 263 263 262 262 262 262 262 262 262 263 263 264 268 269 269 269 270 270 270 270 270 271 270 269 268 269 270 270 271 271 272 272 272 273 272 271 270 270 269 263 262 262 261 261 261 261 261 261 261 261 260 260 260 260 260 261 262 262 262 263 263 263 263 263 263 264 264 265 265 264 264 265 264 264 264 265 265 265 265 265
267 266 264 264 263 263 263 262 262 262 261 261 261 261 262 263 263 264 266 268 268 268 268 269 269 269 269 269 270 269 269 269 270 271 271 271 271 272 272 270 269 269 268 264 261 260 261 261 260 260 260 260 260 260 260 260 260 260 260 260 260 261 262 263 264 263 263 264 264 264 265 265 265 265 265 265 264 264 264 264 264 265 265 264 265
267 266 264 263 263 262 263 262 262 262 262 262 261 261 262 262 262 262 262 262 263 266 267 267 268 267 267 268 268 268 268 269 269 270 270 270 271 271 269 267 269 268 265 261 260 259 260 260 260 260 260 260 260 260 260 260 260 260 260 260 261 262 262 263 263 263 264 264 264 265 265 265 265 265 264 264 265 265 264 264 264 264 264 264 264
266 264 262 262 263 263 263 263 262 262 262 261 261 260 261 260 261 259 260 261 261 261 261 262 265 265 264 265 266 267 268 268 268 269 269 270 269 268 268 264 262 262 261 260 259 259 259 259 259 259 259 259 259 259 259 259 259 260 260 260 260 261 262 262 262 263 264 264 265 265 265 265 265 265 264 264 264 264 264 264 264 264 264 264 264
265 264 262 262 263 264 263 263 262 262 261 261 260 260 260 260 259 260 260 259 258 258 259 260 259 262 264 265 266 266 266 267 267 268 269 269 267 266 261 260 259 259 259 259 259 259 259 259 259 259 259 259 259 259 259 259 259 259 260 260 260 260 261 261 262 263 265 265 265 265 265 264 264 264 264 264 264 264 264 264 264 265 265 265 265
264 263 262 262 263 263 262 262 261 261 262 260 260 259 259 259 259 260 259 259 258 258 258 258 258 259 261 261 261 263 265 266 266 267 268 268 266 262 260 259 258 258 258 258 259 258 258 258 259 259 259 258 258 259 259 259 259 259 260 260 260 260 260 261 263 264 264 264 265 265 264 264 264 264 264 263 263 264 264 264 264 265 265 265 265
263 263 262 262 262 261 261 260 260 261 260 259 259 259 259 259 258 258 258 258 258 257 257 258 259 257 257 259 262 260 259 263 265 266 267 267 261 259 258 258 257 257 257 258 258 257 257 258 257 258 258 258 258 258 258 258 259 259 259 259 260 260 262 263 263 264 264 265 265 265 265 264 264 264 263 263 263 263 264 264 264 264 264 265 265
262 263 263 262 262 261 260 259 259 259 259 259 259 259 258 258 258 257 257 257 257 257 257 257 257 257 257 258 258 259 259 259 260 260 261 260 260 259 258 257 257 257 257 257 257 257 256 257 257 257 257 257 258 257 258 258 258 258 258 259 259 259 260 261 262 263 264 264 265 265 265 264 264 263 263 263 263 263 263 264 264 264 263 263 263
261 261 262 262 262 261 260 259 258 258 258 258 259 258 258 258 257 257 257 257 256 256 257 257 257 257 258 257 257 257 257 258 259 260 260 260 259 258 257 257 257 257 256 256 256 256 256 256 257 256 256 256 257 257 257 257 257 258 258 258 259 259 260 260 261 262 263 264 264 265 265 264 264 263 263 262 262 263 263 263 263 264 264 263 264
261 261 260 262 261 260 259 258 258 258 258 258 258 258 257 257 257 257 257 257 257 256 256 256 257 257 258 258 261 261 258 258 259 260 260 259 258 257 257 257 257 256 256 256 256 256 256 256 256 256 256 256 256 257 257 257 257 257 257 258 258 259 259 260 261 262 263 264 264 264 264 265 264 263 262 262 264 263 263 263 263 263 264 264 264
261 260 260 260 260 260 258 258 258 258 258 257 258 257 257 257 257 256 256 256 256 256 256 256 256 256 258 261 261 263 261 260 260 260 260 259 258 257 257 257 257 256 256 256 256 256 256 255 255 255 255 255 256 256 256 256 256 256 257 257 257 258 258 259 260 262 262 263 264 264 264 264 264 264 263 264 262 262 262 262 262 263 263 263 264
260 260 260 259 259 259 258 258 258 257 257 256 257 257 257 256 256 256 256 256 256 256 256 256 256 256 257 260 261 262 260 259 259 258 257 257 256 256 256 256 256 256 256 256 256 256 255 255 255 255 255 255 255 255 255 255 255 256 256 256 256 256 257 258 260 261 262 263 263 264 263 264 264 263 262 262 261 261 261 261 262 262 262 262 263
259 259 259 259 259 259 259 258 257 257 256 256 256 256 255 255 255 255 255 255 255 255 255 256 256 256 256 257 258 257 257 257 256 256 255 255 255 255 256 256 256 256 256 255 255 255 255 254 254 254 254 254 255 254 255 255 255 255 255 255 256 257 257 258 259 260 261 262 262 263 262 263 264 263 262 262 261 260 260 261 261 261 261 262 262
259 259 258 258 258 258 258 257 257 256 256 255 254 254 254 254 255 255 255 255 255 255 255 255 255 255 255 255 254 254 254 254 255 254 254 255 255 255 255 255 255 255 255 255 255 254 253 254 253 253 253 253 254 254 254 255 255 255 255 255 255 255 256 257 258 259 260 261 261 261 261 262 263 263 262 262 261 260 260 260 260 261 261 261 261
258 258 258 258 257 257 256 256 255 255 255 255 255 254 254 254 254 254 255 255 255 255 255 255 255 254 254 254 254 254 254 254 254 254 254 254 254 255 255 255 255 254 255 254 254 253 254 253 253 253 253 253 253 254 254 254 254 255 255 255 255 255 256 257 258 259 260 260 260 260 260 262 263 263 263 262 261 261 260 260 259 260 260 260 261
258 258 257 257 257 256 256 255 255 254 254 255 255 254 255 255 255 254 254 254 255 254 254 254 254 254 254 254 254 254 254 254 254 254 254 254 254 254 254 254 254 253 253 253 252 253 253 253 253 252 252 252 253 252 253 253 254 254 255 255 256 256 256 257 258 258 258 258 258 259 260 261 262 263 263 262 261 260 260 259 259 259 259 260 260
257 257 257 257 256 255 255 254 254 254 254 254 254 254 254 254 254 254 254 254 253 253 253 254 254 254 254 254 254 254 253 253 253 254 254 254 254 254 253 253 253 253 253 252 252 253 253 253 253 252 252 252 252 252 252 253 253 254 254 255 255 255 256 257 256 256 257 257 258 259 259 261 262 263 262 261 260 260 259 259 259 259 259 260 260
257 257 256 256 255 255 255 254 254 254 254 254 253 253 253 253 253 254 254 254 254 254 254 253 254 254 254 253 253 253 253 253 252 253 253 254 254 254 254 253 253 253 252 252 252 252 252 253 253 253 252 252 252 252 252 252 253 253 253 254 255 256 257 257 256 256 257 257 258 259 261 262 262 262 262 261 260 260 259 259 259 259 259 259 259
257 256 256 255 255 255 255 255 255 254 254 254 254 254 254 253 253 254 254 254 254 253 254 254 253 253 253 253 253 253 253 252 252 253 253 253 254 254 253 253 252 252 252 252 252 252 252 252 252 252 252 252 252 252 252 252 252 253 253 254 255 256 256 256 256 257 257 258 259 261 261 261 261 262 262 261 260 259 259 259 259 259 259 258 258
255 255 255 255 255 255 255 254 254 254 253 254 253 254 253 254 254 254 254 253 253 253 254 253 253 253 253 253 253 253 253 253 253 253 253 254 253 253 253 253 252 252 252 252 252 252 252 252 252 252 252 252 252 252 252 252 253 253 254 255 255 256 256 257 257 258 260 261 261 261 261 261 261 262 262 261 260 259 260 260 259 258 258 258 258
Wind_Speed
9 8 8 8 9 8 7 7 7 6 6 6 6 6 6 6 5 5 5 5 4 4 4 4 4 4 4 4 4 4 4 4 4 4 4 4 4 4 4 5 5 5 5 6 5 5 5 6 6 6 6 6 6 6 7 7 6 6 6 6 7 6 7 9 12 15 13 7 8 10 8 9 10 8 11 11 9 9 10 10 11 11 12 11 11
9 9 8 8 8 8 7 6 5 5 6 6 6 5 5 5 4 4 5 4 4 4 4 3 3 3 3 3 3 3 3 4 4 4 4 4 4 3 4 5 5 5 5 5 5 5 5 6 7 6 6 6 7 7 7 7 7 7 7 6 7 8 7 9 11 12 17 12 8 8 8 8 10 7 8 11 12 11 12 11 10 10 10 10 11
9 8 8 8 9 8 7 6 6 6 6 6 6 6 5 4 3 4 4 3 3 3 2 2 2 2 1 2 2 3 3 3 4 3 4 4 5 4 4 5 5 5 6 6 6 5 6 6 7 6 5 7 7 7 7 7 6 7 8 8 9 9 8 8 10 12 14 15 11 10 8 7 8 10 9 9 11 11 13 13 11 10 10 11 10
9 8 8 9 9 8 7 7 7 6 6 6 7 6 4 4 3 3 3 2 2 2 2 1 1 1 2 2 3 2 3 3 3 4 4 4 5 5 5 5 5 5 5 6 6 5 6 6 6 6 7 7 7 7 7 6 7 8 9 8 9 9 8 8 8 10 12 15 12 10 9 9 9 10 9 9 10 11 10 11 12 12 12 10 11
9 9 9 10 9 8 8 8 7 7 7 6 6 5 5 4 3 3 2 2 1 2 1 1 1 1 1 2 3 3 3 3 4 4 4 4 5 5 5 5 5 5 6 6 6 6 6 6 7 7 7 7 7 7 7 8 8 8 8 8 8 8 8 8 9 9 11 14 14 10 9 10 9 10 10 10 10 10 11 11 11 12 12 11 9
9 9 9 9 9 9 8 8 8 8 7 7 6 5 4 4 4 3 2 1 1 1 2 1 1 1 1 2 2 3 3 4 4 4 5 5 5 5 5 5 5 6 6 6 6 6 6 7 7 7 7 7 7 8 8 8 8 9 9 9 9 9 9 9 9 10 11 12 13 15 10 10 10 9 9 9 11 12 12 11 11 10 10 11 11
9 9 9 9 8 8 7 7 7 7 7 7 6 5 5 4 3 3 2 1 1 1 1 1 0 1 1 1 2 3 3 4 4 4 4 5 5 5 6 6 6 6 5 6 6 6 6 7 7 7 7 7 8 7 8 9 8 9 9 9 9 9 9 9 9 10 11 12 12 12 13 11 9 11 10 10 12 11 12 11 10 8 9 11 14
9 9 8 7 6 7 6 6 6 7 7 7 6 5 5 4 3 2 2 2 1 1 1 1 1 1 1 1 2 2 3 4 3 3 4 4 5 5 6 6 6 6 6 7 6 7 7 7 7 7 7 7 6 8 8 9 9 10 9 8 9 9 9 9 9 9 10 11 11 12 11 12 10 9 10 11 11 10 8 10 13 12 11 10 10
9 9 8 8 7 7 6 5 5 6 7 7 6 5 5 4 3 2 2 2 1 1 1 1 1 1 1 2 2 3 3 3 2 2 3 5 5 6 6 6 7 7 7 7 7 7 7 7 7 7 7 10 14 13 14 13 11 10 10 9 9 9 10 9 9 9 10 10 11 11 12 12 10 10 11 10 11 12 11 11 12 11 11 12 11
9 8 8 8 7 7 6 5 5 6 6 6 6 6 5 4 3 3 3 2 2 1 1 1 1 1 1 2 2 3 3 2 2 4 6 5 6 6 6 6 7 7 8 8 7 7 7 7 7 11 13 13 14 15 15 14 15 12 11 10 10 9 9 9 9 9 10 11 10 11 12 11 11 11 11 12 12 12 12 11 12 12 11 12 11
9 9 9 8 8 8 7 6 6 6 6 6 4 4 5 3 3 2 2 2 3 2 2 3 2 1 2 2 3 3 3 3 4 7 8 9 7 6 6 7 7 7 7 8 8 8 7 7 8 9 10 10 9 12 13 15 16 16 16 16 13 10 9 10 10 10 10 11 11 11 12 15 14 12 12 12 11 12 11 10 11 12 11 12 13
11 10 9 8 8 8 7 7 6 6 6 5 5 4 4 3 3 3 3 4 3 2 3 3 2 2 1 2 3 4 4 5 7 7 9 10 9 7 6 7 7 7 7 8 8 7 8 7 7 7 7 8 9 10 12 14 14 15 15 15 15 15 15 12 11 10 10 11 11 12 13 14 14 12 12 12 12 12 12 13 12 12 13 12 13
11 10 9 9 9 8 8 6 5 5 5 5 5 5 4 4 4 4 5 4 3 3 3 2 2 2 2 3 4 4 5 6 7 8 9 10 10 9 7 7 7 8 8 8 8 8 7 8 8 7 7 11 9 9 10 10 12 15 15 15 15 15 16 18 19 15 13 13 13 14 13 14 15 13 12 13 13 14 14 13 13 13 12 14 13
11 9 8 9 9 9 8 6 6 6 6 5 5 5 5 5 5 5 4 4 3 2 2 2 2 2 2 3 4 5 6 6 8 9 10 11 11 10 7 8 8 8 8 8 8 8 8 8 8 8 8 8 9 9 9 10 11 11 10 11 11 14 18 22 23 24 21 15 14 15 15 14 15 15 14 14 15 14 13 13 13 13 13 12 13
11 8 8 8 8 7 8 7 6 6 6 6 5 5 5 5 5 5 4 3 3 3 2 2 2 2 2 3 3 5 5 8 9 10 11 11 11 10 7 7 7 7 7 8 9 9 9 9 9 9 10 9 9 11 12 12 10 9 9 10 11 13 13 13 14 13 13 13 14 16 16 16 16 18 16 14 15 13 12 13 13 14 14 13 12
10 8 6 7 7 9 8 7 6 6 7 6 6 6 6 6 6 4 3 2 2 2 1 2 3 3 3 3 3 5 6 9 9 10 11 10 12 7 6 6 7 7 8 8 8 8 8 9 9 10 11 11 14 18 16 14 12 11 12 12 12 12 12 14 21 21 19 17 17 17 17 17 20 17 15 14 12 13 13 11 10 10 11 11 12
6 10 8 9 9 9 9 7 7 7 7 7 6 6 7 6 5 3 3 3 3 3 3 2 2 3 3 3 4 5 5 8 9 10 10 11 9 5 6 6 7 7 8 8 8 9 9 9 10 10 12 12 16 19 19 20 13 12 12 13 11 10 10 11 18 24 25 28 29 30 31 30 29 28 27 27 18 14 9 10 9 8 11 12 11
10 10 10 9 9 9 9 7 7 7 7 7 7 6 6 5 4 3 4 3 3 4 3 2 3 3 3 4 4 4 5 8 11 11 11 11 9 6 6 6 7 8 8 8 8 8 10 15 14 13 13 13 17 20 20 17 11 11 12 13 15 14 13 12 11 12 22 25 25 26 25 25 25 24 24 23 22 17 10 12 11 9 11 10 12
11 10 10 9 9 9 7 6 7 7 7 7 7 7 6 4 4 3 2 2 3 3 3 2 3 2 3 4 6 6 6 8 11 11 11 10 8 6 6 6 7 7 8 8 8 8 10 11 16 14 13 14 20 20 21 17 12 12 13 14 14 13 11 11 12 12 10 9 9 10 10 14 13 13 14 23 24 21 14 13 10 9 10 10 10
9 7 8 8 7 6 5 9 7 8 7 6 4 4 4 4 4 4 3 3 3 3 3 2 3 3 3 3 4 5 5 5 6 11 11 11 10 7 6 6 7 8 8 8 9 9 9 9 10 14 17 19 20 21 22 24 17 13 12 12 11 12 9 11 11 11 10 9 11 11 13 14 14 13 13 12 12 12 13 11 10 9 9 9 9
8 8 7 7 7 8 5 8 10 7 5 6 6 4 4 4 5 4 3 2 2 2 2 2 2 3 4 4 4 5 5 5 6 10 11 11 11 9 6 6 7 8 8 8 8 8 9 9 9 14 18 19 21 23 24 25 23 15 11 10 11 16 19 12 12 16 10 10 11 11 11 10 9 9 9 10 10 9 9 11 10 10 10 9 9
10 8 9 9 9 9 9 7 6 7 6 6 6 5 3 4 4 4 4 3 4 2 2 2 2 3 3 3 4 4 6 9 6 8 10 10 10 11 7 7 8 8 8 8 9 9 9 9 9 13 19 21 23 24 25 23 24 14 12 20 25 25 17 12 10 9 9 9 8 9 9 9 8 8 8 8 8 8 8 8 9 9 9 9 9
11 10 10 10 10 10 9 9 8 6 5 4 5 5 5 4 3 4 3 3 3 3 4 3 2 2 2 3 3 3 4 5 9 7 9 10 10 10 12 10 12 9 8 9 9 9 8 9 9 16 21 23 23 24 23 24 19 12 21 21 21 21 16 8 9 8 8 8 9 9 9 9 8 8 8 8 9 9 9 9 9 10 10 9 11
8 9 9 9 10 9 8 7 6 4 5 5 4 4 5 5 4 4 4 4 3 3 2 3 2 2 2 2 2 2 3 3 6 8 7 9 10 11 11 11 12 9 9 9 8 7 6 8 11 21 21 22 23 21 20 18 12 17 17 18 18 15 8 8 7 8 9 9 10 9 9 9 9 9 9 9 10 11 12 11 12 12 12 11 13
10 9 10 9 10 8 6 4 5 5 4 5 5 5 5 4 4 4 4 3 2 2 2 2 2 2 2 2 2 2 2 2 3 6 9 9 10 10 10 13 14 15 10 7 6 7 13 19 20 20 21 21 21 18 13 13 15 16 16 16 14 6 7 7 7 7 8 9 9 9 10 10 10 11 11 12 13 12 11 10 10 10 11 11 12
10 10 9 9 8 9 8 6 5 5 5 4 3 4 5 5 4 4 4 3 3 2 2 2 2 2 2 2 2 2 2 3 4 4 5 6 6 8 11 13 14 14 12 8 13 17 16 17 20 20 18 14 11 8 8 9 15 15 15 13 5 6 5 6 6 7 8 9 9 10 10 10 10 11 12 12 10 10 10 10 10 10 9 10 10
9 9 11 8 7 6 7 6 5 5 4 3 3 3 4 4 4 3 4 3 3 3 3 2 2 2 2 2 2 2 3 4 4 4 3 3 4 6 7 8 12 12 5 3 7 5 8 10 12 16 12 15 13 11 10 10 8 6 5 4 5 5 5 6 7 8 9 9 9 9 9 10 10 11 10 9 9 9 9 10 10 10 10 9 10
12 11 11 7 6 7 6 8 7 5 5 5 5 5 4 5 4 5 5 5 4 3 3 4 3 3 2 2 2 3 4 4 4 4 4 4 5 6 6 7 7 3 0 4 1 3 5 8 9 5 5 5 5 4 3 4 5 5 5 4 4 6 8 11 10 7 7 8 9 10 9 9 9 9 9 9 9 9 9 9 9 10 10 10 10
9 10 8 5 6 6 6 7 6 6 6 5 4 4 5 6 5 3 2 2 2 3 3 3 3 2 2 2 4 4 4 5 5 6 6 9 9 8 7 6 5 3 3 9 3 2 3 4 3 4 3 4 4 4 4 4 4 4 5 4 4 5 4 4 6 6 7 7 8 8 9 9 9 8 8 8 8 9 8 9 9 9 10 9 10
9 9 7 6 5 6 5 6 5 5 5 5 4 2 5 7 5 3 2 6 9 9 7 4 3 3 4 5 6 6 6 6 9 11 13 13 13 13 13 14 13 8 9 11 7 5 4 4 4 3 4 3 4 4 5 4 5 5 4 7 6 5 5 5 5 6 6 7 8 8 8 8 8 8 8 9 9 8 9 11 10 9 10 9 10
6 6 6 6 7 7 5 5 5 4 4 4 4 4 2 5 12 12 8 7 8 11 12 12 12 13 9 6 7 13 12 12 13 13 13 13 13 13 14 13 9 7 10 6 4 3 4 3 4 3 3 3 3 5 4 5 5 5 5 5 5 6 7 5 5 6 7 7 8 8 8 8 8 9 9 10 10 10 9 8 9 9 9 9 10
8 9 7 5 7 7 5 5 5 5 4 4 3 3 3 2 3 10 13 13 12 12 11 11 11 10 11 10 7 4 8 10 12 12 13 13 13 13 13 10 7 9 10 7 3 3 3 3 3 3 3 3 4 4 4 4 5 5 5 5 5 5 6 5 7 7 7 7 7 8 7 8 8 9 9 9 11 10 9 9 9 9 9 9 10
11 8 7 7 6 7 5 5 5 5 5 5 4 4 3 3 2 2 5 10 10 9 8 9 10 10 10 9 10 10 10 11 13 13 13 12 12 13 10 6 7 9 7 3 2 3 3 2 3 3 3 3 4 4 4 4 5 5 5 5 6 6 6 7 9 7 7 7 8 7 8 8 8 9 9 9 9 9 10 10 9 9 9 9 10
8 7 5 7 8 6 6 6 6 5 5 5 4 4 3 3 2 2 3 3 5 6 8 8 7 5 6 8 10 10 10 11 11 11 11 11 13 7 3 4 9 7 2 2 2 3 2 2 3 3 3 3 3 4 4 4 4 5 5 5 6 6 7 7 6 7 7 8 7 7 8 8 9 9 9 9 8 9 9 10 9 9 9 9 10
6 7 12 9 4 6 5 6 5 5 5 4 4 3 3 2 2 2 3 3 2 2 2 2 5 5 4 5 7 9 10 10 9 10 10 11 4 3 6 3 2 1 1 1 2 2 2 3 3 3 3 3 4 3 4 4 4 5 5 6 6 6 7 6 7 7 8 7 7 7 7 9 9 9 9 9 9 10 9 9 9 9 9 10 10
7 4 6 8 5 5 5 5 5 5 5 4 4 3 4 4 3 3 3 2 2 2 2 2 2 3 7 8 8 8 8 8 8 9 9 7 2 3 1 2 1 2 1 2 2 2 2 3 3 3 3 3 3 3 4 4 4 5 5 5 6 6 6 7 8 8 8 7 7 8 9 8 8 9 9 9 9 9 9 9 9 10 10 10 9
5 5 6 6 5 5 5 5 4 5 6 5 4 3 3 3 3 3 3 3 2 2 2 1 1 2 3 2 3 4 6 7 8 9 9 6 2 2 1 1 2 2 2 2 2 2 3 3 3 3 3 3 3 3 3 4 4 4 6 6 6 7 6 7 8 9 8 7 7 6 7 8 8 8 8 10 10 9 9 9 9 11 11 13 14
7 6 6 6 5 5 5 5 5 8 6 5 4 4 4 4 4 4 3 3 3 3 2 2 3 2 2 1 2 0 3 6 8 8 8 6 1 1 1 2 2 3 3 2 2 2 3 3 3 3 3 3 3 3 4 4 4 5 5 5 6 6 11 10 11 9 8 7 7 6 6 7 7 8 8 8 9 10 10 10 9 10 11 12 9
4 8 11 12 8 6 6 6 6 5 5 5 5 5 5 5 4 4 3 3 3 3 3 2 2 3 2 2 1 1 2 2 2 1 1 1 1 1 1 2 2 3 3 3 3 3 3 3 3 3 3 3 3 3 3 4 4 5 5 5 6 6 7 6 7 8 8 7 7 6 6 6 7 7 7 8 9 9 10 10 10 9 10 10 10
6 5 9 13 6 7 6 6 6 5 5 5 5 5 5 4 4 4 4 4 3 4 3 4 4 3 3 2 1 1 2 2 1 1 2 2 2 2 2 2 3 3 3 3 3 3 3 3 3 3 3 3 3 4 3 4 4 5 5 5 6 6 6 6 7 8 8 7 7 7 7 7 7 7 7 7 7 8 10 10 10 10 9 10 11
6 6 7 9 8 7 6 6 5 6 6 5 5 4 4 4 4 4 3 3 3 3 4 3 3 3 3 5 8 7 4 3 3 4 4 3 3 3 3 3 3 3 3 3 3 3 4 3 3 3 3 4 4 4 4 4 4 5 5 6 5 6 6 7 7 8 8 8 7 7 7 7 7 7 7 7 9 9 8 9 10 9 10 10 10
7 7 7 6 8 6 6 5 5 5 5 5 5 5 4 4 3 3 3 3 3 3 3 3 3 3 5 9 9 10 6 5 5 5 4 3 3 3 3 3 3 3 3 4 3 3 3 3 4 4 4 4 4 4 3 4 4 5 5 5 5 6 6 6 7 8 8 8 7 6 7 8 8 7 8 10 8 7 8 8 9 9 9 10 10
6 6 6 5 6 6 6 6 6 5 4 5 4 4 3 3 3 3 3 3 3 4 3 3 3 3 3 7 6 7 2 3 3 2 3 3 3 4 4 4 4 4 4 4 3 3 3 4 4 4 4 5 4 4 4 4 4 5 5 5 6 6 7 7 7 8 7 8 8 7 8 9 8 6 7 7 7 7 7 9 9 9 9 9 9
5 4 4 5 5 5 4 5 5 4 4 4 3 3 3 2 2 2 3 3 3 4 3 3 3 3 2 3 3 3 3 3 3 3 3 4 4 5 4 4 4 3 3 3 3 3 4 4 4 4 4 4 4 4 5 5 5 5 5 6 6 8 7 7 7 7 7 8 9 8 8 9 9 7 7 8 7 8 8 8 8 9 9 9 9
4 5 5 6 5 5 4 4 4 4 4 4 2 2 3 2 2 3 3 3 4 4 3 3 3 3 3 3 3 4 4 4 4 4 4 4 5 5 5 4 4 5 4 4 4 4 4 5 5 5 6 5 5 5 5 6 5 6 6 6 6 8 8 7 6 7 7 8 8 8 8 9 9 7 7 7 7 7 7 7 8 9 10 9 9
4 4 4 5 4 3 4 4 3 3 3 3 3 3 3 3 3 3 3 4 3 3 3 3 3 3 3 3 3 4 4 4 4 4 4 4 5 5 4 4 4 4 4 4 4 4 5 5 5 5 6 6 5 5 5 5 6 6 7 7 8 9 8 7 7 7 8 7 7 7 8 9 9 7 8 8 7 7 7 7 6 7 7 9 9
5 4 4 4 5 3 3 3 3 3 3 3 2 2 2 3 3 3 3 4 3 3 3 3 3 3 3 4 4 4 4 4 4 4 5 5 5 5 5 4 4 5 5 5 4 5 5 6 6 6 7 6 6 7 6 6 6 6 6 7 7 8 7 7 7 6 6 6 7 7 8 9 9 8 8 8 7 7 7 7 6 7 7 8 8
4 4 4 4 4 4 3 3 4 4 2 2 2 2 2 2 2 3 3 3 4 4 4 4 3 3 3 4 4 4 4 4 4 5 4 5 5 6 6 6 6 6 5 5 5 5 5 5 6 6 6 7 7 7 7 7 7 7 7 7 7 7 9 9 7 7 7 7 7 8 9 9 9 7 6 7 7 7 7 7 6 6 7 7 8
4 5 4 4 3 4 3 4 3 3 3 2 2 2 2 2 3 2 3 3 4 4 4 4 4 4 4 4 4 4 3 4 4 4 5 5 5 5 6 6 6 6 6 6 6 6 6 6 6 6 6 6 6 7 7 7 8 8 8 7 9 14 15 15 10 8 10 9 9 10 10 9 9 9 8 7 8 7 6 6 6 6 6 6 6
4 4 3 3 3 2 2 2 2 2 2 2 2 2 2 2 3 3 3 3 3 4 4 4 5 4 4 4 4 4 4 4 5 5 5 5 5 5 5 5 6 6 6 6 6 6 6 6 6 6 7 7 7 7 7 7 8 8 8 9 13 15 15 16 16 17 12 8 9 9 8 9 10 9 7 6 6 7 7 7 6 7 6 6 6
3 3 3 3 3 2 3 2 2 2 2 2 2 2 3 3 3 3 3 4 5 5 5 5 5 5 5 5 4 4 5 5 5 5 5 5 5 4 5 6 6 6 6 6 6 6 6 6 6 7 6 7 7 7 7 7 8 8 11 15 17 17 17 16 12 13 16 13 9 8 8 10 10 9 8 6 6 6 8 7 7 6 5 5 5
Wind_Direction
138 132 130 127 125 120 118 115 113 112 109 105 100 95 87 77 72 77 73 65 58 62 58 49 40 35 28 25 23 6 8 357 347 342 337 334 330 326 318 322 317 312 317 317 319 324 321 315 312 313 316 314 313 310 307 304 301 298 297 294 291 289 291 286 286 289 290 287 293 301 310 310 298 300 300 306 311 315 313 306 304 299 297 293 292
143 139 134 131 127 124 123 122 121 118 116 109 102 97 88 82 84 90 90 78 69 58 58 48 35 28 24 15 10 0 352 347 336 336 332 325 324 323 319 319 316 313 317 316 323 326 320 312 313 315 318 313 308 303 301 305 301 298 296 298 294 294 294 291 286 287 292 301 295 296 305 298 292 311 321 317 314 317 312 307 300 293 290 294 293
144 141 138 137 135 134 135 136 134 131 123 115 106 100 96 95 94 95 87 87 77 70 55 55 41 20 9 9 1 356 350 339 339 330 323 322 317 318 318 317 316 315 316 316 319 318 316 310 308 313 314 309 303 303 301 298 301 302 301 298 292 291 291 287 287 287 291 293 302 305 307 324 318 314 318 309 306 310 307 307 306 304 298 294 290
147 144 142 141 142 145 146 145 143 138 125 113 111 110 110 111 100 94 98 101 109 100 94 63 53 34 11 11 1 346 344 338 328 325 320 318 317 313 314 311 305 305 306 310 314 314 310 309 308 316 312 306 306 305 302 306 309 304 300 299 296 294 293 292 290 289 294 296 300 308 312 313 310 306 307 306 305 304 304 301 302 302 304 304 302
150 150 149 148 153 156 154 153 147 136 124 120 121 117 122 118 108 105 120 122 126 123 126 101 58 39 31 5 346 341 338 330 321 318 316 314 312 306 302 303 303 306 305 303 305 305 305 303 306 310 309 307 305 305 307 310 306 307 301 301 298 300 300 297 294 292 291 291 297 303 312 309 306 307 310 309 306 302 304 301 300 300 299 299 300
157 154 156 157 162 162 158 153 145 134 127 127 129 127 121 116 113 108 102 127 133 137 101 60 102 25 13 350 335 328 326 323 316 308 312 310 301 300 299 300 302 300 299 297 299 298 295 297 302 302 303 302 302 304 307 310 312 302 302 303 305 304 302 302 300 300 298 295 300 305 310 311 311 307 315 316 312 311 306 300 296 300 312 320 318
159 160 162 165 164 163 157 150 141 135 135 134 130 124 117 107 111 111 98 127 191 154 116 120 25 82 326 341 320 321 316 305 298 302 301 301 304 304 302 300 297 296 295 295 291 290 291 292 294 294 293 295 298 304 313 311 304 302 303 304 304 305 303 301 303 301 298 297 297 297 302 307 309 310 314 316 310 304 305 308 305 315 322 314 307
163 165 165 165 160 157 151 142 138 137 132 128 124 122 116 117 121 121 135 194 165 174 157 132 181 145 277 310 301 299 294 288 290 302 313 313 309 301 304 300 297 291 289 289 288 287 286 285 284 285 286 288 298 304 302 300 301 299 297 299 301 303 301 301 302 301 299 298 297 302 303 305 308 303 307 310 306 304 307 312 309 310 306 302 305
163 167 166 163 158 150 137 136 135 129 129 125 124 125 129 133 140 147 173 178 171 170 186 174 208 220 227 252 265 277 272 270 275 331 317 310 303 303 300 296 294 294 293 291 289 287 286 285 281 282 286 288 289 289 292 290 292 293 293 296 299 300 299 301 301 300 297 296 298 299 300 302 306 311 312 311 310 308 310 306 298 302 306 307 306
165 165 166 158 146 141 138 137 145 142 134 132 134 137 141 145 151 166 177 185 185 183 181 202 196 225 242 266 271 258 260 257 255 283 291 297 303 300 299 293 291 292 293 292 290 288 286 285 284 287 287 288 288 287 285 287 286 284 288 293 293 295 296 297 296 295 295 295 296 301 301 300 304 307 304 303 300 302 302 303 304 307 308 301 296
169 171 168 154 142 141 140 152 156 151 139 137 137 144 149 150 161 172 182 188 192 181 195 192 197 207 226 256 271 272 261 251 267 290 297 301 303 298 294 292 287 288 286 287 289 291 289 290 289 289 291 288 288 290 295 292 292 289 287 286 285 286 292 291 288 290 292 290 292 293 293 296 298 300 299 300 298 297 299 302 301 303 304 307 308
174 169 158 137 142 146 151 155 161 153 142 141 145 146 142 149 169 182 191 194 192 172 190 182 199 212 226 262 267 267 271 271 279 290 298 299 300 297 291 288 286 285 285 284 287 288 291 293 293 291 289 290 293 294 292 290 291 293 293 291 289 287 283 281 286 288 284 285 286 286 291 290 292 295 295 295 295 295 296 296 295 295 296 294 295
173 167 152 147 146 151 151 159 164 153 151 148 145 141 145 162 181 191 201 187 175 178 179 174 207 212 240 257 270 275 272 276 280 290 296 298 300 298 289 283 281 279 281 283 286 288 290 292 294 291 292 293 292 289 289 294 296 298 297 296 293 289 287 286 284 283 284 282 281 282 280 285 285 284 284 287 289 290 292 288 288 286 284 284 283
174 162 147 148 150 150 154 159 161 158 150 147 148 153 158 182 192 196 189 180 173 165 168 196 220 232 247 264 270 275 276 276 283 288 295 299 299 297 287 284 280 278 279 281 285 287 288 290 294 293 291 293 291 292 296 299 300 300 297 292 287 281 281 281 282 282 281 277 276 275 275 271 274 276 276 279 283 284 283 282 285 284 278 274 282
176 156 147 147 147 150 157 164 161 154 150 154 158 165 170 186 190 199 186 174 164 175 188 199 212 232 253 257 267 275 274 275 281 290 296 299 298 300 291 286 280 278 277 277 280 281 286 286 285 289 292 293 291 294 298 296 293 284 276 270 266 263 262 266 268 268 269 271 271 271 273 273 272 274 275 277 276 273 273 275 279 281 283 284 280
168 146 144 153 157 160 156 162 158 155 157 161 167 172 177 189 198 186 162 160 159 158 198 190 209 229 241 248 259 267 273 279 287 292 295 297 302 302 289 282 280 279 275 275 273 279 280 281 285 287 290 292 293 294 295 295 289 282 276 271 266 261 257 254 269 273 273 270 269 265 266 263 262 263 268 270 266 270 274 277 284 285 290 292 291
158 164 167 166 165 160 161 159 158 158 162 164 173 177 179 190 191 160 157 175 169 186 185 204 214 222 234 239 250 265 272 285 289 291 294 297 303 294 284 282 278 275 275 279 281 278 275 279 283 286 291 290 293 295 296 297 291 282 279 278 272 258 256 257 265 273 274 273 275 280 278 280 283 288 291 295 294 291 289 290 290 300 291 289 288
175 169 177 171 161 158 161 154 156 160 164 173 173 177 178 184 168 159 169 178 180 183 193 202 215 225 232 237 245 258 270 282 288 290 293 293 292 288 286 279 277 277 280 278 279 278 279 282 285 288 288 289 292 296 298 301 293 292 290 287 284 279 274 276 275 273 273 283 286 287 290 289 296 300 300 299 298 298 294 284 285 282 278 277 284
181 178 174 154 157 153 151 150 158 158 163 174 169 169 171 170 145 149 179 175 177 180 197 204 212 229 233 242 255 259 266 276 284 286 286 287 288 280 276 279 280 282 287 287 285 283 284 286 289 288 288 291 295 299 303 305 299 291 285 282 284 283 287 288 290 295 304 304 303 308 303 299 295 287 280 281 282 281 276 275 277 269 274 278 281
179 146 136 141 141 144 145 156 146 155 161 155 143 156 158 146 144 165 182 185 179 187 184 204 206 236 248 245 244 246 255 262 269 279 283 283 283 280 278 277 281 286 289 289 289 283 281 287 293 295 296 299 301 302 303 301 297 295 294 293 294 297 307 306 311 316 315 310 303 297 290 287 282 277 276 275 275 272 273 273 273 273 273 275 277
139 136 133 134 133 134 129 155 159 157 146 144 146 151 158 152 146 166 182 191 168 176 188 223 235 243 244 241 243 250 243 255 265 274 280 282 281 281 277 276 282 285 282 279 280 293 300 296 295 297 301 304 305 305 306 308 312 315 317 311 306 306 311 314 319 319 311 306 298 293 289 287 285 284 283 282 279 276 275 277 275 271 269 269 270
130 147 149 145 146 146 149 137 118 134 132 143 144 151 149 134 146 166 199 172 160 187 206 218 227 239 243 241 244 247 250 252 255 268 278 281 280 279 273 270 274 277 278 287 294 294 293 296 298 302 306 308 310 313 315 315 315 319 312 308 308 312 314 318 318 312 301 298 299 300 300 299 299 299 295 292 290 288 284 279 275 271 268 264 264
159 158 157 156 159 155 147 149 134 133 135 145 144 147 140 134 155 184 182 157 172 189 203 211 222 241 247 250 243 244 248 249 256 258 267 275 282 285 286 285 286 287 290 286 285 290 292 298 306 309 311 315 317 316 315 316 319 312 311 315 317 320 323 320 313 309 307 309 306 300 297 297 298 300 299 298 297 295 293 292 291 290 286 283 280
151 158 162 160 153 150 143 134 113 133 145 143 140 138 149 149 172 192 184 185 185 188 206 188 209 227 242 254 247 245 251 252 253 262 280 287 287 290 290 291 292 287 281 282 289 301 318 319 310 312 318 318 317 318 319 321 318 321 327 327 331 332 324 318 319 316 313 307 302 300 300 302 302 299 301 305 305 305 301 297 292 287 282 279 278
161 167 167 158 146 117 115 132 136 136 142 145 152 155 143 156 186 186 171 195 191 191 213 201 211 238 257 257 258 264 266 282 285 283 290 290 291 291 294 296 297 298 295 291 301 313 307 309 314 317 316 317 320 323 324 322 326 331 335 338 342 336 333 327 324 322 314 310 306 303 303 305 306 305 307 307 304 299 294 291 288 286 284 280 275
168 172 156 137 133 123 127 119 127 133 144 159 172 167 161 182 199 176 176 181 179 193 213 204 210 221 239 249 254 263 283 285 282 288 293 290 286 292 298 301 301 297 293 294 301 305 308 311 312 314 316 317 322 322 320 320 327 332 334 337 337 328 328 324 318 317 310 308 305 303 304 306 305 307 307 306 306 305 309 305 302 296 292 290 287
166 157 150 129 124 136 148 155 151 148 166 166 180 177 172 192 195 183 177 175 181 193 203 200 213 218 218 235 249 272 280 277 282 284 281 278 286 281 278 280 287 295 300 305 303 303 304 307 308 310 310 312 315 315 317 321 327 326 326 327 320 314 312 311 310 307 308 304 304 303 304 304 306 308 308 307 303 301 302 301 298 298 299 297 296
171 162 149 137 149 158 163 151 153 160 177 178 177 179 188 199 196 193 186 180 172 193 190 202 203 206 212 227 262 275 275 274 276 269 270 276 275 281 295 294 293 304 270 310 24 313 305 304 307 301 299 306 310 312 311 315 318 319 322 319 310 311 312 312 311 305 301 302 302 303 302 306 305 305 305 303 301 300 302 306 308 306 305 306 301
160 153 153 138 151 163 170 160 175 165 169 183 198 188 186 194 201 207 200 168 178 182 199 204 194 195 193 235 249 262 268 260 255 262 263 276 292 300 297 290 293 304 306 316 323 296 297 297 289 299 301 308 312 312 314 316 316 314 310 308 316 318 313 310 312 310 309 311 309 309 306 305 305 305 303 301 302 307 308 304 302 301 304 301 297
152 151 159 159 151 161 169 162 176 161 159 174 180 222 233 215 209 193 196 202 216 225 211 203 193 187 213 231 227 239 251 259 265 275 287 298 298 295 294 296 301 312 320 322 329 313 295 291 288 294 303 305 308 312 316 320 315 318 318 323 322 313 308 307 302 305 311 310 308 307 305 307 304 306 307 308 307 307 309 310 307 307 306 304 302
163 162 160 178 167 166 161 156 164 168 165 165 172 182 187 217 224 222 211 205 215 223 228 232 234 234 222 221 233 245 258 274 285 294 294 292 295 296 295 301 326 328 316 329 323 295 290 286 293 296 297 304 301 310 317 312 313 312 313 313 308 311 313 306 306 312 309 303 302 300 301 303 307 312 314 314 312 311 310 308 307 307 305 305 303
173 180 168 161 147 165 157 151 151 162 159 165 176 177 195 182 199 215 220 227 232 238 243 248 252 258 262 265 268 269 272 274 279 284 286 291 295 292 294 303 331 325 319 320 301 285 279 281 290 292 299 302 303 311 308 304 304 305 306 308 308 306 310 308 313 312 300 295 294 300 303 310 314 313 311 311 313 312 311 312 312 310 307 305 302
186 166 152 157 156 167 161 153 162 163 164 166 172 180 185 190 186 166 200 221 231 236 245 247 252 254 253 256 265 271 271 273 278 284 289 292 288 287 295 325 337 327 323 310 269 282 280 281 279 285 293 294 304 302 299 298 298 301 302 301 302 304 302 301 305 294 293 298 304 302 310 316 317 315 313 312 313 312 314 312 311 308 307 306 305
186 168 142 154 156 163 167 162 165 168 168 168 171 171 184 177 174 174 175 193 214 237 239 244 237 232 245 255 264 267 271 275 277 280 286 287 289 303 322 327 313 305 265 257 274 267 278 277 279 281 288 289 291 295 292 295 299 299 297 294 295 299 300 302 304 304 298 302 300 306 318 320 321 317 315 316 313 311 310 310 311 311 310 309 307
179 156 157 158 150 158 160 162 157 157 153 161 164 168 168 162 164 182 209 203 195 188 183 198 220 233 249 269 266 261 265 269 274 278 282 283 321 12 333 328 314 261 229 199 241 257 268 270 276 282 284 286 288 289 290 292 297 298 296 297 297 297 304 308 306 305 301 297 308 320 326 325 322 321 320 317 316 315 314 312 310 309 306 306 306
167 136 152 161 156 156 157 150 154 154 152 159 160 163 155 159 178 195 197 196 197 227 247 214 201 240 270 269 257 258 261 268 273 278 276 281 17 9 350 284 266 253 240 247 237 250 254 258 262 269 275 278 280 282 290 294 290 292 293 293 295 302 304 304 303 302 303 312 314 318 322 318 320 321 318 314 311 310 308 307 307 309 310 308 307
160 146 152 163 158 147 137 137 140 149 149 144 147 154 162 179 186 187 186 186 197 215 228 252 264 263 227 223 250 265 272 274 276 274 272 271 61 92 173 228 243 260 251 244 244 246 250 255 263 271 274 273 279 284 287 284 287 286 291 292 291 294 292 291 298 305 309 308 310 312 316 317 318 319 319 317 315 312 309 308 308 309 311 312 313
174 155 152 150 148 133 130 132 137 141 138 150 159 166 172 183 185 187 186 190 195 195 219 225 226 234 237 236 152 199 301 292 280 269 261 247 120 135 182 195 220 230 248 250 241 241 248 255 252 257 261 268 269 274 280 283 287 289 289 293 295 289 295 300 303 300 298 300 306 311 313 315 317 316 316 316 315 315 314 314 313 312 311 312 312
163 153 148 150 149 141 144 137 144 151 155 161 171 172 181 179 179 185 189 191 191 208 209 212 214 217 224 212 223 285 302 267 222 217 210 201 211 185 202 216 222 232 237 240 241 244 252 256 256 260 262 263 271 277 281 282 285 286 289 289 289 288 293 296 298 300 299 301 308 308 308 310 313 313 312 311 313 316 315 312 313 313 314 314 312
156 144 152 152 146 151 142 146 150 156 165 165 177 176 180 183 186 185 185 181 195 199 205 207 211 215 205 179 203 217 219 236 253 245 244 245 233 219 203 226 226 230 232 239 239 245 250 253 253 255 266 269 269 270 271 276 276 277 281 282 283 288 291 293 293 296 298 303 303 303 305 306 309 311 308 308 308 313 316 315 314 314 311 309 308
153 144 151 162 155 146 145 152 161 169 165 172 175 173 187 181 183 178 183 191 199 202 213 213 218 213 197 206 220 209 201 226 245 250 244 241 246 234 229 228 229 234 235 235 237 237 241 250 258 261 262 263 262 259 263 267 275 278 275 278 280 283 288 287 289 290 294 297 300 306 310 308 307 310 312 313 316 316 309 311 310 308 308 307 310
146 142 155 156 154 151 155 168 171 164 163 171 173 177 176 177 176 181 187 196 202 210 212 221 220 203 224 227 231 234 230 231 236 244 246 245 245 245 241 240 236 235 236 236 233 235 237 239 241 245 249 251 254 261 263 261 263 269 273 275 278 280 279 282 286 290 291 292 299 306 311 308 303 302 310 319 314 311 312 311 310 308 308 313 314
139 143 154 147 157 165 166 170 154 155 167 171 177 169 169 169 174 181 191 201 208 206 213 219 222 200 212 232 234 244 250 244 232 231 240 252 251 252 244 239 236 230 227 231 233 233 237 243 244 244 244 247 246 251 256 261 265 270 273 272 272 272 274 276 279 284 290 296 298 304 305 306 306 301 306 309 311 312 309 311 311 313 312 312 312
140 138 139 142 154 150 148 146 153 162 166 157 145 153 162 166 178 189 197 211 209 218 217 224 217 209 207 218 220 220 216 223 218 216 225 240 246 249 247 241 238 235 235 230 230 226 234 240 245 247 246 252 251 251 254 259 261 259 261 267 270 268 267 268 273 281 292 297 298 298 304 304 303 302 302 307 311 313 313 312 314 314 313 311 312
134 142 141 146 149 151 148 146 146 147 138 136 157 162 163 177 192 196 206 217 218 218 222 220 215 207 209 202 199 206 210 212 218 219 225 232 242 245 248 250 243 240 240 243 235 228 229 238 246 255 260 256 249 250 250 252 248 253 253 256 259 264 263 267 271 284 290 290 291 294 299 300 299 298 300 303 308 308 307 311 311 314 313 313 314
137 137 142 143 141 142 147 146 145 142 151 163 165 171 174 179 197 203 210 219 220 219 222 222 217 213 212 214 213 210 214 208 216 217 223 227 235 244 243 243 242 239 237 237 235 228 232 235 243 248 254 257 256 253 257 255 254 251 251 249 253 258 263 268 274 277 277 284 295 296 292 288 288 289 296 300 300 300 298 301 300 302 304 307 309
132 134 138 139 148 144 140 136 147 150 156 168 167 168 175 183 190 205 215 223 226 228 228 229 222 220 217 216 219 223 213 214 216 221 226 230 234 238 242 242 245 246 244 243 238 240 239 238 240 244 249 253 255 256 255 255 257 256 252 250 248 255 258 264 268 275 287 291 286 281 282 285 289 287 293 298 298 295 296 298 300 306 306 308 307
138 135 141 140 139 143 142 143 153 150 160 164 169 173 185 189 193 202 216 215 227 235 239 235 231 232 226 230 223 220 220 224 227 226 230 232 235 234 238 238 239 240 243 244 244 240 237 238 236 238 242 246 248 253 254 254 252 251 255 256 256 253 258 263 271 278 277 275 274 275 277 279 280 281 290 292 291 291 293 294 301 301 306 309 311
138 145 142 150 152 149 151 156 156 165 171 166 169 186 194 195 213 213 217 225 226 225 227 232 233 229 229 231 226 229 227 228 230 234 230 232 234 235 234 234 236 236 238 243 242 240 239 240 239 243 244 249 248 249 253 254 257 257 256 255 259 261 263 264 267 268 275 276 273 270 271 276 283 284 282 284 285 284 282 284 286 292 299 302 305
135 138 134 139 147 155 146 152 155 160 158 166 175 186 188 196 209 217 221 222 233 234 235 233 235 235 233 235 231 231 226 231 234 234 234 231 231 232 232 233 235 234 234 241 241 241 241 241 239 241 244 248 249 250 251 253 256 258 259 257 261 263 264 268 271 271 269 261 266 272 279 283 281 277 272 276 279 280 282 279 282 289 293 297 301
126 134 139 146 149 153 150 153 157 163 163 176 184 193 200 205 213 217 218 220 229 233 233 230 233 234 235 237 237 238 238 240 241 244 243 240 235 235 237 239 241 241 242 241 246 244 246 247 248 248 246 244 245 247 248 249 253 254 258 261 263 266 268 271 270 268 267 271 273 274 274 275 275 273 270 271 276 278 280 284 284 285 288 290 290